[TLELIST] Archives

 

[TLELIST] Current TLEs

August 11th 2023 PST

HST 1 20580U 90037B 23222.19872660 .00004293 00000-0 22203-3 0 9994 2 20580 28.4687 268.5077 0002231 234.6817 173.6499 15.13712007629919 ISS (ZARYA) 1 25544U 98067A 23223.38180912 .00011362 00000-0 20597-3 0 9993 2 25544 51.6419 55.0567 0000198 64.7827 359.7010 15.50109250410354 CXO 1 25867U 99040B 23226.13240554 .00000670 00000-0 00000+0 0 9991 2 25867 37.3441 189.3399 9055558 268.5921 0.4117 0.37809783 24558 ...Continue Reading

[TLELIST] Current TLEs

August 11th 2023 PST

HST 1 20580U 90037B 23222.19872660 .00004293 00000-0 22203-3 0 9994 2 20580 28.4687 268.5077 0002231 234.6817 173.6499 15.13712007629919 ISS (ZARYA) 1 25544U 98067A 23223.38180912 .00011362 00000-0 20597-3 0 9993 2 25544 51.6419 55.0567 0000198 64.7827 359.7010 15.50109250410354 CXO 1 25867U 99040B 23226.13240554 .00000670 00000-0 00000+0 0 9991 2 25867 37.3441 189.3399 9055558 268.5921 0.4117 0.37809783 24558 ...Continue Reading

[TLELIST] Current TLEs

August 10th 2023 PST

HST 1 20580U 90037B 23222.19872660 .00004293 00000-0 22203-3 0 9994 2 20580 28.4687 268.5077 0002231 234.6817 173.6499 15.13712007629919 ISS (ZARYA) 1 25544U 98067A 23222.30481358 .00011329 00000-0 20556-3 0 9990 2 25544 51.6424 60.3943 0000248 35.3883 135.1170 15.50084455410182 CXO 1 25867U 99040B 23223.48771960 .00000538 00000-0 00000+0 0 9999 2 25867 37.3458 189.6655 9055898 268.3141 0.4119 0.37807653 24548 ...Continue Reading

[TLELIST] Current TLEs

August 9th 2023 PST

HST 1 20580U 90037B 23220.63182493 .00004785 00000-0 24872-3 0 9999 2 20580 28.4691 278.9410 0002286 216.2168 276.5440 15.13699709629670 ISS (ZARYA) 1 25544U 98067A 23221.44875692 .00135227 00000-0 23301-2 0 9996 2 25544 51.6463 64.6422 0001774 89.5061 340.8342 15.50082477410052 CXO 1 25867U 99040B 23220.84471188 .00000447 00000-0 00000+0 0 9994 2 25867 37.3505 190.0476 9055618 267.9868 0.6525 0.37809863 24536 ...Continue Reading

[TLELIST] Current TLEs

August 8th 2023 PST

HST 1 20580U 90037B 23219.51048814 .00004748 00000-0 24682-3 0 9990 2 20580 28.4693 286.4071 0002358 202.9626 287.1402 15.13689586629500 ISS (ZARYA) 1 25544U 98067A 23220.41567624 .00028376 00000-0 50240-3 0 9994 2 25544 51.6418 69.7562 0000378 91.7660 329.9765 15.50056344409893 CXO 1 25867U 99040B 23220.84471188 .00000447 00000-0 00000+0 0 9994 2 25867 37.3505 190.0476 9055618 267.9868 0.6525 0.37809863 24536 ...Continue Reading

[TLELIST] Current TLEs

August 7th 2023 PST

HST 1 20580U 90037B 23218.24050132 .00004989 00000-0 25990-3 0 9995 2 20580 28.4694 294.8628 0002456 188.5871 207.2555 15.13677600629317 ISS (ZARYA) 1 25544U 98067A 23219.44910648 -.00010308 00000-0 -17293-3 0 9992 2 25544 51.6397 74.5498 0000375 3.2806 61.3283 15.50002991409743 CXO 1 25867U 99040B 23220.84471188 .00000447 00000-0 00000+0 0 9994 2 25867 37.3505 190.0476 9055618 267.9868 0.6525 0.37809863 24536 ...Continue Reading

[TLELIST] Current TLEs

August 6th 2023 PST

HST 1 20580U 90037B 23218.24050132 .00004989 00000-0 25990-3 0 9995 2 20580 28.4694 294.8628 0002456 188.5871 207.2555 15.13677600629317 ISS (ZARYA) 1 25544U 98067A 23218.10658399 .00020978 00000-0 37240-3 0 9992 2 25544 51.6406 81.1984 0000881 179.6502 308.7615 15.50165244409536 CXO 1 25867U 99040B 23218.20077911 .00000497 00000-0 00000+0 0 9992 2 25867 37.3593 190.4618 9053041 267.6375 0.7456 0.37807508 24520 ...Continue Reading

[TLELIST] Current TLEs

August 5th 2023 PST

HST 1 20580U 90037B 23216.67360793 .00004908 00000-0 25566-3 0 9997 2 20580 28.4698 305.2951 0002560 172.3291 308.1897 15.13661646629076 ISS (ZARYA) 1 25544U 98067A 23217.40724723 .00026509 00000-0 46856-3 0 9998 2 25544 51.6409 84.6648 0000622 164.6560 18.5011 15.50141517409426 CXO 1 25867U 99040B 23218.20077911 .00000497 00000-0 00000+0 0 9992 2 25867 37.3593 190.4618 9053041 267.6375 0.7456 0.37807508 24520 ...Continue Reading

[TLELIST] Current TLEs

August 4th 2023 PST

HST 1 20580U 90037B 23215.47504818 .00005056 00000-0 26374-3 0 9995 2 20580 28.4700 313.2742 0002654 159.8944 256.4853 15.13650587628894 ISS (ZARYA) 1 25544U 98067A 23216.30597424 .00016406 00000-0 29387-3 0 9997 2 25544 51.6415 90.1197 0000976 153.7733 359.7746 15.50094272409258 CXO 1 25867U 99040B 23218.20077911 .00000497 00000-0 00000+0 0 9992 2 25867 37.3593 190.4618 9053041 267.6375 0.7456 0.37807508 24520 ...Continue Reading

[TLELIST] Current TLEs

August 3rd 2023 PST

HST 1 20580U 90037B 23213.77475720 .00005065 00000-0 26435-3 0 9993 2 20580 28.4704 324.5937 0002767 142.6088 350.2618 15.13634091628639 ISS (ZARYA) 1 25544U 98067A 23215.27256123 .00041610 00000-0 73103-3 0 9990 2 25544 51.6403 95.2411 0000623 157.9606 345.0624 15.50085581409092 CXO 1 25867U 99040B 23215.55605390 .00000636 00000-0 00000+0 0 9990 2 25867 37.3684 190.7827 9049445 267.3760 0.6504 0.37809493 24511 ...Continue Reading
  • This mailing list is a public mailing list - anyone may join or leave, at any time.
  • This mailing list is announce-only.

International Space Station (ISS) / Hubble Space Telescope (HST) / Chandra X-Ray Observatory Orbital Data via EMAIL

Privacy Policy:

Private list